FW3958 Weather Reports


Display with metric or nautical units.
time (UTC)temp
F
wind
direction
speed
MPH
gust
MPH
rain 1hr
in
rain 24hr
in
rain mn
in
humidity
%
barometer
mb
20260510133010 49 221 0.0 0.0 0.00 0.00 0.00 100 1020.8
20260510131503 49 221 0.0 0.0 0.00 0.00 0.00 100 1020.9
20260510130003 49 221 0.0 0.0 0.00 0.00 0.00 100 1020.8
20260510124502 49 220 0.0 0.0 0.00 0.00 0.00 100 1020.7
20260510123101 49 220 0.0 0.0 0.00 0.00 0.00 100 1020.8
20260510121601 49 221 0.0 0.0 0.00 0.00 0.00 100 1020.7
20260510120059 50 220 0.0 0.0 0.00 0.00 0.00 100 1020.5
20260510114559 49 220 0.0 0.0 0.00 0.00 0.00 100 1020.7
20260510113103 49 220 0.0 0.0 0.00 0.00 0.00 100 1021.3
20260510111609 49 220 0.0 0.0 0.00 0.00 0.00 100 1021.2
20260510110054 48 220 0.0 0.0 0.00 0.00 0.00 100 1021.1
20260510104553 49 220 0.0 0.0 0.00 0.00 0.00 100 1020.9
20260510103052 49 220 0.0 0.0 0.00 0.00 0.00 100 1020.6
20260510101553 49 220 0.0 0.0 0.00 0.00 0.00 100 1020.7
20260510100053 49 231 0.0 0.0 0.00 0.00 0.00 100 1020.6
20260510094551 48 231 0.0 0.0 0.00 0.00 0.00 100 1021.0
20260510093101 48 231 0.0 0.0 0.00 0.00 0.00 100 1020.6
20260510091548 49 231 0.0 0.0 0.00 0.00 0.00 100 1020.5
20260510090055 48 231 0.0 0.0 0.00 0.00 0.00 100 1020.4
20260510084544 48 231 0.0 0.0 0.00 0.00 0.00 100 1020.5
20260510083050 48 231 0.0 0.0 0.00 0.00 0.00 100 1020.7
20260510081555 48 231 0.0 0.0 0.00 0.00 0.00 100 1020.7
20260510080046 49 231 0.0 0.0 0.00 0.00 0.00 100 1020.7
20260510074538 49 231 0.0 0.0 0.00 0.00 0.00 100 1020.3
20260510073035 49 231 0.0 2.0 0.00 0.00 0.00 100 1020.4
20260510071534 49 230 0.0 0.0 0.00 0.00 0.00 100 1020.2
20260510070032 50 230 0.0 1.0 0.00 0.00 0.00 99 1020.2
20260510064534 50 230 0.0 3.0 0.00 0.00 0.00 99 1020.3
20260510063031 51 284 0.0 2.0 0.00 0.00 0.00 98 1020.1
20260510061531 52 284 0.0 1.0 0.00 0.00 0.00 97 1020.1
20260510060029 53 284 0.0 4.0 0.00 0.00 0.00 96 1019.9
20260510054530 53 330 0.0 2.0 0.00 0.00 0.00 96 1020.1
20260510053028 53 334 2.0 6.0 0.00 0.00 0.00 96 1020.2
20260510051529 54 305 2.0 6.0 0.00 0.00 0.00 96 1020.1
20260510050028 54 312 1.0 7.0 0.00 0.00 0.00 95 1020.0
20260510044534 54 290 3.0 7.0 0.00 0.00 0.00 95 1019.9
20260510043028 55 307 2.0 6.0 0.00 0.00 0.00 95 1019.8
20260510041526 55 291 3.0 8.0 0.00 0.00 0.00 94 1019.5
20260510040027 56 298 2.0 7.0 0.00 0.00 0.00 93 1019.2
20260510034526 57 317 2.0 6.0 0.00 0.00 0.00 93 1018.9
20260510033026 59 213 0.0 2.0 0.00 0.00 0.00 91 1018.7
20260510031525 60 207 1.0 4.0 0.00 0.00 0.00 91 1018.5
20260510030034 60 319 1.0 4.0 0.00 0.00 0.00 89 1018.4
20260510024525 60 328 0.0 4.0 0.00 0.00 0.00 89 1018.4
20260510023023 61 346 0.0 3.0 0.00 0.00 0.00 88 1018.6
20260510021527 62 352 1.0 4.0 0.00 0.00 0.00 86 1018.4
20260510020023 62 321 1.0 4.0 0.00 0.00 0.00 87 1018.5
20260510014519 62 9 2.0 9.0 0.00 0.00 0.00 84 1018.6
20260510013018 63 310 4.0 7.0 0.00 0.00 0.00 84 1018.6
20260510011517 65 317 5.0 8.0 0.00 0.00 0.00 81 1018.7
20260510010017 67 4 4.0 9.0 0.00 0.00 0.00 80 1018.7
20260510004515 66 350 3.0 7.0 0.00 0.00 0.00 79 1018.7
20260510003023 67 322 2.0 8.0 0.00 0.00 0.00 78 1018.7
20260510001511 67 342 4.0 9.0 0.00 0.00 0.00 77 1018.7
20260510000012 68 342 3.0 8.0 0.00 0.00 0.00 76 1018.9
20260509234513 69 315 4.0 8.0 0.00 0.00 0.00 74 1019.1
20260509233011 70 11 2.0 9.0 0.00 0.00 0.00 74 1019.2
20260509231504 70 309 3.0 9.0 0.00 0.00 0.00 67 1019.4
20260509230001 69 13 4.0 8.0 0.00 0.00 0.00 68 1019.6
20260509224602 68 324 2.0 8.0 0.00 0.00 0.00 68 1019.8
20260509223059 69 299 6.0 9.0 0.00 0.00 0.00 66 1019.8
20260509221556 69 14 3.0 10.0 0.00 0.00 0.00 67 1020.1
20260509220051 68 308 3.0 9.0 0.00 0.00 0.00 69 1020.4
20260509214546 67 328 4.0 9.0 0.00 0.00 0.00 69 1020.2
20260509213048 67 332 3.0 8.0 0.00 0.00 0.00 72 1020.5
20260509211549 66 320 2.0 9.0 0.00 0.00 0.00 76 1020.8
20260509210039 67 329 4.0 9.0 0.00 0.00 0.00 74 1020.8
20260509204536 67 345 7.0 11.0 0.00 0.00 0.00 77 1021.2
20260509203039 66 20 4.0 8.0 0.00 0.00 0.00 74 1021.4
20260509201531 66 305 3.0 10.0 0.00 0.00 0.00 76 1021.4
20260509200028 65 338 4.0 10.0 0.00 0.00 0.00 79 1021.6
20260509194529 65 270 7.0 10.0 0.00 0.00 0.00 80 1021.5
20260509193030 65 299 5.0 8.0 0.00 0.00 0.00 79 1021.5
20260509191524 64 346 3.0 8.0 0.00 0.00 0.00 81 1021.6
20260509190020 64 15 3.0 8.0 0.00 0.00 0.00 83 1022.0
20260509184526 63 300 4.0 9.0 0.00 0.00 0.00 84 1022.2
20260509183018 61 332 4.0 8.0 0.00 0.00 0.00 84 1022.5
20260509181512 61 357 3.0 8.0 0.00 0.00 0.00 87 1022.4
20260509180009 60 22 3.0 8.0 0.00 0.00 0.00 88 1022.5
20260509174507 59 321 4.0 8.0 0.00 0.00 0.00 88 1022.6
20260509173006 59 301 3.0 7.0 0.00 0.00 0.00 89 1022.6
20260509171505 60 317 3.0 7.0 0.00 0.00 0.00 88 1022.6
20260509170004 59 338 3.0 8.0 0.00 0.00 0.00 87 1022.5
20260509164502 59 7 1.0 4.0 0.00 0.00 0.00 90 1022.6
20260509163058 58 338 0.0 2.0 0.00 0.00 0.00 91 1022.8
20260509161558 56 68 1.0 4.0 0.00 0.00 0.00 94 1022.6
20260509160053 55 26 1.0 5.0 0.00 0.00 0.00 94 1022.7
20260509154550 55 104 0.0 3.0 0.00 0.00 0.00 98 1022.7
20260509153045 53 16 0.0 3.0 0.00 0.00 0.00 100 1023.3
20260509151544 51 15 1.0 4.0 0.00 0.00 0.00 100 1023.3
20260509150043 50 259 0.0 0.0 0.00 0.00 0.00 100 1023.3
20260509144543 48 259 0.0 0.0 0.00 0.00 0.00 100 1023.3
20260509143042 46 259 0.0 0.0 0.00 0.00 0.00 100 1023.6
20260509141541 45 259 0.0 0.0 0.00 0.00 0.00 100 1023.5
20260509140042 44 259 0.0 0.0 0.00 0.00 0.00 100 1023.5
20260509134540 44 259 0.0 0.0 0.00 0.00 0.00 100 1023.2